This is the latest recevied weather packets stored in our database for station/object KC5TIL-3. If no packets are shown the sender has not sent any weather packets the latest 10 day(s).
| Time | Temp. | Humidity | Pressure | Rain* | Wind** | Luminosity | Snow |
|---|---|---|---|---|---|---|---|
| 1787895591 | 31.67° C | 17% | 1013.8 hPa | 0 mm | 3.58 m/s, 120° | - | - |
| 1787895293 | 31.67° C | 17% | 1013.8 hPa | 0 mm | 1.79 m/s, 112° | - | - |
| 1787894990 | 31.67° C | 17% | 1013.8 hPa | 0 mm | 2.24 m/s, 104° | - | - |
| 1787894689 | 31.67° C | 17% | 1013.8 hPa | 0 mm | 2.68 m/s, 124° | - | - |
| 1787894390 | 31.67° C | 17% | 1013.8 hPa | 0 mm | 2.68 m/s, 108° | - | - |
| 1787894092 | 32.22° C | 17% | 1013.8 hPa | 0 mm | 2.24 m/s, 111° | - | - |
| 1787893782 | 32.22° C | 17% | 1013.8 hPa | 0 mm | 2.68 m/s, 137° | - | - |
| 1787893483 | 32.22° C | 17% | 1013.8 hPa | 0 mm | 3.13 m/s, 115° | - | - |
| 1787893185 | 32.22° C | 17% | 1013.8 hPa | 0 mm | 2.24 m/s, 104° | - | - |
| 1787892884 | 32.22° C | 17% | 1013.8 hPa | 0 mm | 2.68 m/s, 109° | - | - |
| 1787892581 | 32.22° C | 17% | 1013.8 hPa | 0 mm | 3.13 m/s, 109° | - | - |
| 1787892279 | 32.22° C | 17% | 1013.8 hPa | 0 mm | 3.13 m/s, 120° | - | - |
| 1787891977 | 32.22° C | 17% | 1013.8 hPa | 0 mm | 3.13 m/s, 123° | - | - |
| 1787891679 | 32.78° C | 17% | 1013.8 hPa | 0 mm | 4.02 m/s, 111° | - | - |
| 1787891381 | 32.78° C | 17% | 1012.8 hPa | 0 mm | 3.13 m/s, 127° | - | - |
| 1787891080 | 32.78° C | 17% | 1012.8 hPa | 0 mm | 3.13 m/s, 90° | - | - |
| 1787890781 | 32.78° C | 17% | 1012.8 hPa | 0 mm | 3.13 m/s, 111° | - | - |
| 1787890483 | 32.78° C | 17% | 1012.8 hPa | 0 mm | 4.02 m/s, 99° | - | - |
| 1787890182 | 32.78° C | 14% | 1012.8 hPa | 0 mm | 2.24 m/s, 112° | - | - |
| 1787889884 | 32.78° C | 14% | 1012.8 hPa | 0 mm | 4.02 m/s, 109° | - | - |
| 1787889586 | 32.78° C | 14% | 1012.8 hPa | 0 mm | 3.58 m/s, 129° | - | - |
| 1787889284 | 33.33° C | 14% | 1012.8 hPa | 0 mm | 3.58 m/s, 118° | - | - |
| 1787888986 | 33.33° C | 14% | 1012.8 hPa | 0 mm | 2.68 m/s, 139° | - | - |
| 1787888688 | 33.33° C | 14% | 1012.8 hPa | 0 mm | 5.36 m/s, 141° | - | - |
| 1787888387 | 33.33° C | 14% | 1012.8 hPa | 0 mm | 2.68 m/s, 157° | - | - |
* Rain latest hour (hover to see other rain measurements)
** Current wind speed in m/s (hover to see current wind gust speed)